Regional Weather Roundup
Issued by NWS

Home | Current Version | Previous Version | Text Only | Print | Product List | Glossary Off
Versions: 1 2 3 4 5 6 7 8 9 10 11 12 13 14 15 16 17 18 19 20 21 22 23 24 25 26 27 28 29 30 31 32 33 34 35 36 37 38 39 40 41 42 43 44 45 46 47 48 49 50

000
ASUS43 KIND 252059
RWRIN

WEATHER ROUNDUP FOR INDIANA
NATIONAL WEATHER SERVICE INDIANAPOLIS IN
500 PM EDT WED MAY 25 2016

NOTE: "FAIR" INDICATES FEW OR NO CLOUDS BELOW 12,000 FEET WITH NO
SIGNIFICANT WEATHER AND/OR OBSTRUCTIONS TO VISIBILITY.

* - STATION DOES NOT REPORT WEATHER SUCH AS PRECIPITATION OR FOG.

+ - STATION NOT QUALITY CONTROLLED BY THE NATIONAL WEATHER SERVICE.
    USE DATA WITH CAUTION...ESPECIALLY DEWPOINT AND RELATIVE
    HUMIDITY OBSERVATIONS.

INZ001>003-010>013-019-020-252200-
NORTHWEST INDIANA

CITY           SKY/WX    TMP DP  RH WIND       PRES   REMARKS
GARY /AIRPORT/ PTSUNNY   88  66  48 S12       29.92F
RENSSELAER +   MOSUNNY   86  57  37 S20       29.94F

$$

LMZ046-743>745-252200-
SOUTHERN LAKE MICHIGAN

STATION/POSITION TIME  TEMP    WIND        PRES    WAVE
                       AIR SEA DIR/SP/G            HT
                 (UTC) (F)     (DEG/KT/KT) (MB)    (FT)
BURNS HARBOR     2000   86     210/  8/ 11 1014.2F
MICHIGAN CITY    2000   69      10/  9/ 10   N/A
5NW MICH CITY    2000   65 61   50/  6/  8   N/A     0

$$

INZ004-005-014>016-021>024-252200-
NORTH CENTRAL INDIANA

CITY           SKY/WX    TMP DP  RH WIND       PRES   REMARKS
ELKHART        MOSUNNY   84  64  51 S10       29.98F
GOSHEN         MOSUNNY   84  57  39 S12G20    29.98F
PERU/GRISSOM   MOSUNNY   86  63  46 S13G18    29.97F
SOUTH BEND     MOSUNNY   84  59  42 S10G21    29.96F

$$

INZ006>009-017-018-025>027-252200-
NORTHEAST INDIANA

CITY           SKY/WX    TMP DP  RH WIND       PRES   REMARKS
ANGOLA *+      MOSUNNY   82  61  47 S12       30.00F
FORT WAYNE     PTSUNNY   85  58  39 SW16G24   30.00F

$$

INZ028-029-035-036-043>045-051>053-252200-
WEST CENTRAL INDIANA

CITY           SKY/WX    TMP DP  RH WIND       PRES   REMARKS
CRAWFORDSVL +  MOSUNNY   81  63  54 SW15      30.00S
GREENCASTLE +  MOSUNNY   81  68  65 S10       30.02S
LAFAYETTE      PTSUNNY   82  61  48 S13G18    29.97F
TERRE HAUTE    MOSUNNY   80  62  54 S16G28    30.02R

$$

INZ030>032-037>040-046>048-054>057-064-065-252200-
CENTRAL INDIANA

CITY           SKY/WX    TMP DP  RH WIND       PRES   REMARKS
COLUMBUS       PTSUNNY   82  64  54 SW17      30.03F
INDIANAPOLIS   CLOUDY    82  63  52 S12G21    30.00F
-EAGLE CREEK   MOSUNNY   83  61  47 S10G17    30.00F
KOKOMO *+      CLOUDY    84  63  48 S13       29.98F
SHELBYVILLE    MOSUNNY   86  61  42 SW14      30.02F

$$

INZ033-034-041-042-049-050-058-059-252200-
EAST CENTRAL INDIANA

CITY           SKY/WX    TMP DP  RH WIND       PRES   REMARKS
MUNCIE         MOSUNNY   85  58  39 SW10      30.02F

$$

INZ060-061-067>069-081>083-085>088-252200-
SOUTHWEST INDIANA

CITY           SKY/WX    TMP DP  RH WIND       PRES   REMARKS
EVANSVILLE     LGT RAIN  72  66  81 S15G21    30.05F
HUNTINGBURG *+ CLOUDY    75  63  64 SW10      30.08S

$$

INZ062-063-066-070>080-084-089>092-252200-
SOUTH CENTRAL AND SOUTHEAST INDIANA

CITY           SKY/WX    TMP DP  RH WIND       PRES   REMARKS
BLOOMINGTON    MOSUNNY   81  63  54 SW16G24   30.04S
MADISON *+     MOSUNNY   82  61  47 S8        30.08F

$$





USA.gov is the U.S. government's official web portal to all federal, state and local government web resources and services.